{"data":{"norad_id":66957,"epoch":"2026-09-20T21:45:42.014592Z","epoch_age_seconds":76794,"freshness":"FRESH","line1":"1 66957U 25287E   26263.90673628 -.00000055  00000+0 -16343-3 0  9998","line2":"2 66957  86.4881 249.9586 0001520  85.5628 274.5679 13.24405344 38017","mean_motion":13.24405344,"eccentricity":0.000152,"inclination_deg":86.4881,"raan_deg":249.9586,"arg_perigee_deg":85.5628,"mean_anomaly_deg":274.5679,"bstar":-0.00016343,"rev_number":3801,"period_min":108.72804210008,"perigee_km":1166.7928675807,"apogee_km":1169.0868749496,"semimajor_km":7546.0768712651,"source":"CELESTRAK","updated_at":"2026-09-21T09:00:16.321523Z"}}